カタログに戻る

STARLINK-30309

運用中通信VLEO
NORAD 57632·PAYLOAD·🇺🇸 United States

打ち上げ Aug 17, 2023 から Cape Canaveral Space Force Station

Loading…

次のパス (今後24時間)

TLE

最新Source: CelesTrak SupGP

元期: Sep 14, 2026, 20:50 UTC

1 57632C 23122A   26257.86854167  .00001768  00000+0  64057-4 0  2574
2 57632  43.0017 104.2870 0001809 265.1517 234.9409 15.27571160    14

AllMySatでSTARLINK-30309をリアルタイム追跡

Download on the App Store